Regional Weather Roundup
Issued by NWS Newport/Morehead, NC

Current Version | Previous Version | Graphics & Text | Print | Product List | Glossary On
Versions: 1 2 3 4 5 6 7 8 9 10 11 12 13 14 15 16 17 18 19 20 21 22 23 24 25 26 27 28 29 30 31 32 33 34 35 36 37 38 39 40 41 42 43 44 45 46 47 48 49 50
000 ASUS42 KMHX 301413 RWRMHX WEATHER ROUNDUP FOR EASTERN NORTH CAROLINA NATIONAL WEATHER SERVICE NEWPORT/MOREHEAD CITY NC 1000 AM EDT TUE JUN 30 2015 NOTE: "FAIR" INDICATES FEW OR NO CLOUDS BELOW 12,000 FEET WITH NO SIGNIFICANT WEATHER AND/OR OBSTRUCTIONS TO VISIBILITY NCZ015>017-031-032-045>047-102-103-301500- NORTH COAST CITY SKY/WX TMP DP RH WIND PRES REMARKS EDENTON N/A 79 70 73 SW6 29.98S ELIZABETH CITY MOSUNNY 82 71 69 S7 29.97F KITTY HAWK MOSUNNY 84 72 67 S5 29.98S MANTEO MOSUNNY 81 69 65 S6 29.99F $$ NCZ045>047-081-094-103-104-301500- CENTRAL COAST CITY SKY/WX TMP DP RH WIND PRES REMARKS FRISCO SUNNY 81 73 76 SW8 30.00F SWANQUARTER N/A 84 N/A N/A SW6 29.97S $$ NCZ095-097-098-100-101-301500- SOUTHERN COAST CITY SKY/WX TMP DP RH WIND PRES REMARKS BEAUFORT SUNNY 83 70 64 SW8 30.00S CEDAR ISLAND N/A 84 N/A N/A W6G12 30.03S JACKSONVILLE MOSUNNY 82 68 62 SW7 30.00R PINEY ISLAND SUNNY N/A N/A N/A SW10 29.99F WILMINGTON MOSUNNY 84 69 60 W7 30.01R $$ NCZ011>013-027>030-043-044-078>080-089-090>093-098-301500- COASTAL PLAIN CITY SKY/WX TMP DP RH WIND PRES REMARKS AHOSKIE SUNNY 81 68 65 S3 29.96F CLINTON SUNNY 81 70 69 S3 30.00S ELIZABETHTOWN SUNNY 81 67 63 S6 30.00S GOLDSBORO SUNNY 83 66 55 S5 29.96F GREENVILLE SUNNY 82 68 61 SW6 30.00S HAVELOCK SUNNY 84 67 56 W7 30.01R KENANSVILLE SUNNY 81 67 61 CALM 30.00S KINSTON SUNNY 82 64 54 SW7 30.00S NEW BERN SUNNY 83 67 58 W7 30.01S RICHLANDS MOSUNNY 82 66 57 SW7 30.00F ROCKY MOUNT SUNNY 83 66 56 S9 29.97F WASHINGTON SUNNY 80 67 64 SW5 29.99S WHITEVILLE SUNNY 81 68 63 SW6 30.01S $$ AMZ130-135-150-152-154-156-158-170-250-252-270-ANZ085-086-088-633-658-670-301500- MARINE OBSERVATIONS STATION/POSITION TIME TEMP WIND PRES WAVE SWELL AIR SEA DIR/SP/G HT/PER HT/PER (UTC) (F) (DEG/KT/KT) (MB) (FT/S) (FT/S) CHESAPEAKE LIGHT 1400 77 160/ 13/ 14 1015.4 64 E VA BEACH 1350 76 75 150/ 8/ 10 1015.2 4/ 7 3/ 7 DUCK 1300 79 75 220/ 7/ 10 1014.6 2 E DUCK 1311 73 N/A 2/ 8 OREGON INLET 1300 79 77 220/ 8/ 10 1015.7 13E OREGON INLT 1400 77 N/A 3/ 7 HATTERAS CG 1300 81 80 210/ 7/ 10 1015.6 DIAMOND BUOY 1350 80 82 230/ 10/ 10 1015.9 3/ 7 3/ 7 CAPE LOOKOUT 1400 81 250/ 11/ 14 1015.7 BEAUFORT LAB 1300 81 80 240/ 5/ 10 1015.2 30 SE NEW RVR IN NOT AVBL 27 SE WRIGHTSVLE 1300 80 270/ 10/ 12 N/A 5 SE WRIGHTSVLE 1308 79 79 260/ 8/ 12 1016.2 225 S CAPE HAT 1250 77 80 210/ 19/ 23 1018.0 6/ 7 41 SE CHARLESTON 1350 81 82 260/ 12/ 14 1016.9 4/ 7 3/ 7 $$

USA.gov is the U.S. government's official web portal to all federal, state and local government web resources and services.